WAT8107 KHOU-MRLB

Flight info

Callsign WAT8107
Flight time 1h 47m
Altitude 35000
Route PEECE6 ANKRR L208 DUTNA UL208 MID UB753 BZE UZ512 MGA DCT OVADO OVADO1V
Aircraft A320/M-SDE3FGHIRWY/LB1

Departure

Time 2026-04-22 21:51
Airport William P. Hobby Airport (KHOU)

Arrival

Time 2026-04-22 23:38
Airport Daniel Oduber Quirós International Airport (MRLB)
Time Latitude Longitude Altitude Speed Heading
2026-04-22 21:37 29.65233 -95.27576 52 ft 0 kts 21°
2026-04-22 21:44 29.65222 -95.27580 49 ft 3 kts 21°
2026-04-22 21:45 29.65205 -95.27587 50 ft 3 kts 21°
2026-04-22 21:45 29.65189 -95.27595 50 ft 2 kts 21°
2026-04-22 21:45 29.65173 -95.27602 48 ft 2 kts 21°
2026-04-22 21:45 29.65157 -95.27607 49 ft 2 kts 334°
2026-04-22 21:46 29.65145 -95.27594 49 ft 2 kts 262°
2026-04-22 21:46 29.65149 -95.27581 49 ft 0 kts 228°
2026-04-22 21:47 29.65138 -95.27596 50 ft 5 kts 236°
2026-04-22 21:48 29.65133 -95.27666 52 ft 13 kts 271°
2026-04-22 21:48 29.65136 -95.27772 51 ft 14 kts 271°
2026-04-22 21:48 29.65139 -95.27886 52 ft 15 kts 271°
2026-04-22 21:48 29.65190 -95.27988 52 ft 15 kts 304°
2026-04-22 21:49 29.65222 -95.28095 51 ft 14 kts 265°
2026-04-22 21:49 29.65267 -95.28196 51 ft 15 kts 300°
2026-04-22 21:49 29.65296 -95.28308 51 ft 15 kts 262°
2026-04-22 21:49 29.65241 -95.28410 51 ft 16 kts 235°
2026-04-22 21:50 29.65222 -95.28490 52 ft 16 kts 263°
2026-04-22 21:50 29.65109 -95.28556 49 ft 17 kts 159°
2026-04-22 21:50 29.64951 -95.28389 52 ft 62 kts 134°
2026-04-22 21:50 29.64500 -95.27838 49 ft 123 kts 134°
2026-04-22 21:51 29.63799 -95.27001 191 ft 157 kts 133°
2026-04-22 21:51 29.62996 -95.26096 702 ft 168 kts 135°
2026-04-22 21:51 29.62126 -95.25123 1146 ft 185 kts 134°
2026-04-22 21:52 29.60036 -95.22424 1182 ft 268 kts 131°
2026-04-22 21:52 29.58723 -95.20702 1524 ft 295 kts 132°
2026-04-22 21:52 29.57391 -95.18981 2859 ft 279 kts 132°
2026-04-22 21:52 29.56074 -95.17451 4265 ft 265 kts 144°
2026-04-22 21:53 29.54538 -95.16297 5200 ft 264 kts 149°
2026-04-22 21:53 29.52955 -95.15180 5992 ft 270 kts 150°
2026-04-22 21:53 29.51329 -95.14048 6706 ft 277 kts 150°
2026-04-22 21:53 29.50228 -95.13285 7200 ft 281 kts 151°
2026-04-22 21:54 29.48561 -95.12070 7881 ft 287 kts 143°
2026-04-22 21:54 29.47099 -95.10479 8546 ft 292 kts 135°
2026-04-22 21:54 29.45671 -95.08793 9334 ft 296 kts 135°
2026-04-22 21:54 29.43741 -95.06514 10348 ft 310 kts 135°
2026-04-22 21:55 29.42180 -95.04676 10687 ft 333 kts 136°
2026-04-22 21:55 29.40508 -95.02713 10878 ft 355 kts 136°
2026-04-22 21:55 29.38734 -95.00631 11042 ft 372 kts 135°
2026-04-22 21:55 29.37500 -94.99182 11332 ft 377 kts 135°
2026-04-22 21:56 29.35682 -94.97046 11848 ft 382 kts 135°
2026-04-22 21:56 29.33817 -94.94854 12391 ft 386 kts 135°
2026-04-22 21:56 29.31927 -94.92631 12923 ft 390 kts 135°
2026-04-22 21:56 29.30022 -94.90396 13461 ft 395 kts 135°
2026-04-22 21:57 29.28094 -94.88134 13981 ft 398 kts 135°
2026-04-22 21:57 29.26138 -94.85864 14457 ft 402 kts 136°
2026-04-22 21:57 29.24122 -94.83632 14938 ft 405 kts 137°
2026-04-22 21:57 29.22056 -94.81424 15418 ft 408 kts 138°
2026-04-22 21:58 29.19960 -94.79217 15900 ft 411 kts 139°
2026-04-22 21:58 29.17845 -94.76996 16386 ft 414 kts 139°
2026-04-22 21:58 29.15720 -94.74757 16868 ft 417 kts 138°
2026-04-22 21:58 29.13577 -94.72485 17343 ft 421 kts 138°
2026-04-22 21:59 29.11426 -94.70192 17842 ft 425 kts 138°
2026-04-22 21:59 29.08012 -94.66536 18596 ft 430 kts 138°
2026-04-22 21:59 29.03612 -94.61821 19495 ft 437 kts 138°
2026-04-22 21:59 28.99132 -94.57041 20390 ft 443 kts 138°
2026-04-22 22:00 28.94597 -94.52213 21224 ft 448 kts 138°
2026-04-22 22:00 28.90063 -94.47403 21970 ft 454 kts 138°
2026-04-22 22:00 28.85408 -94.42467 22658 ft 460 kts 138°
2026-04-22 22:00 28.80693 -94.37464 23338 ft 465 kts 138°
2026-04-22 22:01 28.75936 -94.32420 23933 ft 470 kts 138°
2026-04-22 22:01 28.71117 -94.27321 24488 ft 474 kts 138°
2026-04-22 22:01 28.66266 -94.22198 25020 ft 478 kts 139°
2026-04-22 22:01 28.61375 -94.17037 25572 ft 481 kts 139°
2026-04-22 22:02 28.56467 -94.11865 26266 ft 480 kts 139°
2026-04-22 22:02 28.51576 -94.06723 27069 ft 478 kts 139°
2026-04-22 22:02 28.46710 -94.01606 27881 ft 476 kts 139°
2026-04-22 22:02 28.41861 -93.96517 28708 ft 473 kts 139°
2026-04-22 22:03 28.37030 -93.91460 29535 ft 471 kts 139°
2026-04-22 22:03 28.32214 -93.86422 30329 ft 469 kts 139°
2026-04-22 22:03 28.27407 -93.81403 30941 ft 470 kts 139°
2026-04-22 22:03 28.22613 -93.76400 31670 ft 467 kts 139°
2026-04-22 22:04 28.17854 -93.71428 32372 ft 464 kts 139°
2026-04-22 22:04 28.13100 -93.66475 33047 ft 463 kts 140°
2026-04-22 22:04 28.08362 -93.61551 33729 ft 462 kts 140°
2026-04-22 22:04 28.03645 -93.56642 34318 ft 461 kts 140°
2026-04-22 22:05 27.98992 -93.51803 34785 ft 460 kts 140°
2026-04-22 22:05 27.94251 -93.46900 35062 ft 464 kts 140°
2026-04-22 22:05 27.89426 -93.41919 35057 ft 475 kts 140°
2026-04-22 22:06 27.79642 -93.31819 35057 ft 478 kts 140°
2026-04-22 22:06 27.69762 -93.21785 35046 ft 475 kts 147°
2026-04-22 22:06 27.64015 -93.18298 35051 ft 467 kts 164°
2026-04-22 22:07 27.57896 -93.15820 35055 ft 467 kts 163°
2026-04-22 22:07 27.45675 -93.10808 35059 ft 468 kts 164°
2026-04-22 22:08 27.33395 -93.05830 35040 ft 470 kts 163°
2026-04-22 22:08 27.21077 -93.00832 35056 ft 472 kts 163°
2026-04-22 22:09 27.08698 -92.95818 35041 ft 473 kts 164°
2026-04-22 22:09 26.96272 -92.90826 35050 ft 475 kts 164°
2026-04-22 22:10 26.83811 -92.85796 35051 ft 477 kts 164°
2026-04-22 22:10 26.77766 -92.82676 35053 ft 482 kts 152°
2026-04-22 22:10 26.72016 -92.78809 35060 ft 483 kts 152°
2026-04-22 22:11 26.60543 -92.71129 35073 ft 483 kts 152°
2026-04-22 22:11 26.48987 -92.63439 35065 ft 483 kts 153°
2026-04-22 22:12 26.37425 -92.55741 35073 ft 484 kts 153°
2026-04-22 22:12 26.25854 -92.48059 35076 ft 484 kts 153°
2026-04-22 22:13 26.14265 -92.40397 35045 ft 485 kts 153°
2026-04-22 22:13 26.02668 -92.32727 35059 ft 486 kts 153°
2026-04-22 22:14 25.91037 -92.25058 35058 ft 486 kts 154°
2026-04-22 22:14 25.79402 -92.17403 35073 ft 485 kts 154°
2026-04-22 22:15 25.67789 -92.09792 35068 ft 485 kts 154°
2026-04-22 22:15 25.56179 -92.02186 35046 ft 485 kts 154°
2026-04-22 22:16 25.44529 -91.94585 35055 ft 486 kts 154°
2026-04-22 22:16 25.32890 -91.86994 35064 ft 485 kts 155°
2026-04-22 22:17 25.21259 -91.79441 35054 ft 485 kts 155°
2026-04-22 22:17 25.09697 -91.71951 35058 ft 485 kts 155°
2026-04-22 22:18 24.98063 -91.64406 35032 ft 485 kts 155°
2026-04-22 22:18 24.86434 -91.56894 35059 ft 484 kts 155°
2026-04-22 22:19 24.74813 -91.49407 35066 ft 483 kts 155°
2026-04-22 22:19 24.63207 -91.41949 35059 ft 482 kts 155°
2026-04-22 22:20 24.51635 -91.34524 35052 ft 481 kts 156°
2026-04-22 22:20 24.39604 -91.28449 35050 ft 475 kts 162°
2026-04-22 22:21 24.27519 -91.22594 35039 ft 475 kts 163°
2026-04-22 22:21 24.15438 -91.16750 35041 ft 474 kts 163°
2026-04-22 22:22 24.03362 -91.10944 35029 ft 473 kts 163°
2026-04-22 22:22 23.91310 -91.05154 35045 ft 472 kts 163°
2026-04-22 22:23 23.79281 -90.99372 35041 ft 472 kts 163°
2026-04-22 22:23 23.67259 -90.93617 35034 ft 471 kts 164°
2026-04-22 22:24 23.55321 -90.87924 35040 ft 471 kts 164°
2026-04-22 22:24 23.43332 -90.82174 35041 ft 471 kts 164°
2026-04-22 22:25 23.31354 -90.76490 35033 ft 468 kts 165°
2026-04-22 22:25 23.19448 -90.70842 35034 ft 466 kts 165°
2026-04-22 22:26 23.07567 -90.65195 35017 ft 465 kts 165°
2026-04-22 22:26 22.95706 -90.59598 35025 ft 464 kts 165°
2026-04-22 22:27 22.83846 -90.54005 35024 ft 464 kts 165°
2026-04-22 22:27 22.71992 -90.48399 35003 ft 465 kts 165°
2026-04-22 22:28 22.60132 -90.42807 35004 ft 465 kts 165°
2026-04-22 22:28 22.48258 -90.37219 35008 ft 466 kts 165°
2026-04-22 22:29 22.36371 -90.31660 35005 ft 465 kts 164°
2026-04-22 22:29 22.24486 -90.26108 35011 ft 465 kts 164°
2026-04-22 22:30 22.12591 -90.20562 34989 ft 465 kts 164°
2026-04-22 22:30 22.00688 -90.15009 34994 ft 467 kts 164°
2026-04-22 22:31 21.88762 -90.09450 35003 ft 467 kts 164°
2026-04-22 22:31 21.76905 -90.03960 34978 ft 468 kts 164°
2026-04-22 22:32 21.64926 -89.98406 34982 ft 469 kts 164°
2026-04-22 22:32 21.52926 -89.92851 34993 ft 470 kts 164°
2026-04-22 22:33 21.40910 -89.87292 35001 ft 470 kts 164°
2026-04-22 22:33 21.28883 -89.81747 35003 ft 470 kts 164°
2026-04-22 22:34 21.16860 -89.76206 35004 ft 470 kts 164°
2026-04-22 22:34 21.04832 -89.70687 34960 ft 470 kts 164°
2026-04-22 22:35 20.92808 -89.65181 34968 ft 469 kts 165°
2026-04-22 22:35 20.80648 -89.60286 34972 ft 466 kts 167°
2026-04-22 22:36 20.68467 -89.55447 34968 ft 467 kts 166°
2026-04-22 22:36 20.56323 -89.50531 34955 ft 466 kts 166°
2026-04-22 22:37 20.44163 -89.45663 34937 ft 466 kts 166°
2026-04-22 22:37 20.32021 -89.40791 34945 ft 466 kts 166°
2026-04-22 22:38 20.19994 -89.35934 34931 ft 465 kts 166°
2026-04-22 22:38 20.07878 -89.31096 34922 ft 464 kts 166°
2026-04-22 22:39 19.95767 -89.26326 34930 ft 464 kts 166°
2026-04-22 22:39 19.83645 -89.21518 34941 ft 465 kts 166°
2026-04-22 22:40 19.71519 -89.16698 34942 ft 465 kts 166°
2026-04-22 22:40 19.59387 -89.11882 34948 ft 465 kts 166°
2026-04-22 22:41 19.47257 -89.07088 34961 ft 465 kts 166°
2026-04-22 22:41 19.35148 -89.02277 34951 ft 465 kts 165°
2026-04-22 22:42 19.25077 -88.98304 34957 ft 465 kts 166°
2026-04-22 22:42 19.10966 -88.92754 34956 ft 465 kts 165°
2026-04-22 22:43 19.00880 -88.88772 34964 ft 465 kts 165°
2026-04-22 22:43 18.88738 -88.84011 34973 ft 465 kts 165°
2026-04-22 22:44 18.76601 -88.79248 34963 ft 465 kts 165°
2026-04-22 22:44 18.64470 -88.74504 34984 ft 465 kts 165°
2026-04-22 22:45 18.52337 -88.69748 34990 ft 465 kts 165°
2026-04-22 22:45 18.40196 -88.65006 34981 ft 465 kts 165°
2026-04-22 22:46 18.28066 -88.60279 34995 ft 465 kts 164°
2026-04-22 22:46 18.15938 -88.55510 34997 ft 465 kts 165°
2026-04-22 22:47 18.03798 -88.50814 34996 ft 465 kts 165°
2026-04-22 22:47 17.91647 -88.46114 34994 ft 465 kts 165°
2026-04-22 22:48 17.79524 -88.41372 34994 ft 465 kts 164°
2026-04-22 22:48 17.67391 -88.36631 34972 ft 465 kts 164°
2026-04-22 22:49 17.55264 -88.31911 34989 ft 465 kts 164°
2026-04-22 22:49 17.43102 -88.27265 34993 ft 465 kts 165°
2026-04-22 22:50 17.30932 -88.22657 34985 ft 465 kts 164°
2026-04-22 22:50 17.18763 -88.18043 34982 ft 465 kts 164°
2026-04-22 22:51 17.06677 -88.13465 34982 ft 465 kts 164°
2026-04-22 22:51 16.94510 -88.08863 34972 ft 464 kts 165°
2026-04-22 22:52 16.82335 -88.04349 34973 ft 464 kts 165°
2026-04-22 22:52 16.70152 -87.99949 34974 ft 463 kts 165°
2026-04-22 22:53 16.57968 -87.95517 34971 ft 463 kts 165°
2026-04-22 22:53 16.45785 -87.91113 34973 ft 464 kts 165°
2026-04-22 22:54 16.33601 -87.86691 34960 ft 464 kts 165°
2026-04-22 22:54 16.21407 -87.82272 34970 ft 464 kts 165°
2026-04-22 22:55 16.09208 -87.77840 34973 ft 464 kts 164°
2026-04-22 22:55 15.91039 -87.70770 34981 ft 465 kts 163°
2026-04-22 22:56 15.78924 -87.66103 34993 ft 465 kts 163°
2026-04-22 22:56 15.66799 -87.61428 34994 ft 464 kts 163°
2026-04-22 22:57 15.54675 -87.56769 34983 ft 465 kts 163°
2026-04-22 22:57 15.42544 -87.52123 35014 ft 465 kts 163°
2026-04-22 22:58 15.30479 -87.47489 35028 ft 465 kts 163°
2026-04-22 22:58 15.18338 -87.42829 35019 ft 466 kts 163°
2026-04-22 22:59 15.06170 -87.38170 35027 ft 466 kts 163°
2026-04-22 22:59 14.94001 -87.33526 35036 ft 466 kts 163°
2026-04-22 23:00 14.81848 -87.28884 35056 ft 465 kts 162°
2026-04-22 23:00 14.69730 -87.24256 35073 ft 464 kts 162°
2026-04-22 23:01 14.57612 -87.19642 35085 ft 464 kts 162°
2026-04-22 23:01 14.45507 -87.15026 35097 ft 464 kts 162°
2026-04-22 23:02 14.33503 -87.10092 35125 ft 465 kts 159°
2026-04-22 23:02 14.21577 -87.04911 35109 ft 465 kts 160°
2026-04-22 23:03 14.09719 -86.99894 35124 ft 463 kts 160°
2026-04-22 23:03 13.97842 -86.94848 35095 ft 461 kts 160°
2026-04-22 23:04 13.85998 -86.89811 35026 ft 459 kts 160°
2026-04-22 23:04 13.74160 -86.84802 34982 ft 461 kts 160°
2026-04-22 23:05 13.62280 -86.79774 34970 ft 462 kts 160°
2026-04-22 23:05 13.50380 -86.74744 34972 ft 463 kts 160°
2026-04-22 23:06 13.38450 -86.69704 34969 ft 463 kts 160°
2026-04-22 23:06 13.26532 -86.64676 34958 ft 462 kts 160°
2026-04-22 23:07 13.14711 -86.59685 34955 ft 462 kts 160°
2026-04-22 23:07 13.02808 -86.54679 34939 ft 461 kts 160°
2026-04-22 23:08 12.90966 -86.49698 34937 ft 460 kts 160°
2026-04-22 23:08 12.79148 -86.44717 34931 ft 459 kts 160°
2026-04-22 23:09 12.67335 -86.39760 34913 ft 458 kts 160°
2026-04-22 23:09 12.55547 -86.34830 34897 ft 458 kts 160°
2026-04-22 23:10 12.43764 -86.29873 34896 ft 458 kts 160°
2026-04-22 23:10 12.31976 -86.24948 34886 ft 457 kts 160°
2026-04-22 23:11 12.20187 -86.20030 34889 ft 457 kts 160°
2026-04-22 23:11 12.08395 -86.15125 34888 ft 457 kts 161°
2026-04-22 23:12 11.96650 -86.10368 34880 ft 445 kts 161°
2026-04-22 23:12 11.85169 -86.05692 34891 ft 444 kts 161°
2026-04-22 23:13 11.73760 -86.01049 34892 ft 444 kts 161°
2026-04-22 23:13 11.62245 -85.96373 33049 ft 454 kts 161°
2026-04-22 23:14 11.56254 -85.93947 29554 ft 471 kts 160°
2026-04-22 23:14 11.50106 -85.91449 25867 ft 476 kts 159°
2026-04-22 23:14 11.44041 -85.88998 23282 ft 461 kts 157°
2026-04-22 23:14 11.38185 -85.86633 20580 ft 445 kts 157°
2026-04-22 23:15 11.32506 -85.84327 18075 ft 433 kts 157°
2026-04-22 23:15 11.26988 -85.82088 15578 ft 421 kts 156°
2026-04-22 23:15 11.21638 -85.80075 14146 ft 392 kts 165°
2026-04-22 23:15 11.16225 -85.79661 12944 ft 390 kts 179°
2026-04-22 23:16 11.10845 -85.79662 11791 ft 384 kts 178°
2026-04-22 23:16 11.05541 -85.79639 10787 ft 375 kts 178°
2026-04-22 23:16 11.00535 -85.79566 10542 ft 345 kts 176°
2026-04-22 23:16 10.95914 -85.79424 10317 ft 321 kts 176°
2026-04-22 23:17 10.91565 -85.79289 10029 ft 304 kts 176°
2026-04-22 23:17 10.87332 -85.79162 9501 ft 309 kts 176°
2026-04-22 23:17 10.83075 -85.79045 8867 ft 305 kts 176°
2026-04-22 23:17 10.78865 -85.78934 8238 ft 301 kts 176°
2026-04-22 23:18 10.74723 -85.78823 7600 ft 296 kts 176°
2026-04-22 23:18 10.70647 -85.78719 7147 ft 286 kts 176°
2026-04-22 23:18 10.66796 -85.78628 6868 ft 270 kts 176°
2026-04-22 23:18 10.63044 -85.78586 6286 ft 269 kts 177°
2026-04-22 23:19 10.59498 -85.77906 5682 ft 256 kts 139°
2026-04-22 23:19 10.58071 -85.74903 5307 ft 235 kts 86°
2026-04-22 23:19 10.58306 -85.71525 5096 ft 240 kts 85°
2026-04-22 23:19 10.58526 -85.68140 4878 ft 239 kts 85°
2026-04-22 23:20 10.58749 -85.64773 4655 ft 238 kts 85°
2026-04-22 23:20 10.58979 -85.61308 4511 ft 276 kts 85°
2026-04-22 23:20 10.59181 -85.56921 4494 ft 343 kts 95°
2026-04-22 23:20 10.58498 -85.53069 4546 ft 375 kts 96°
2026-04-22 23:21 10.58198 -85.50497 5791 ft 359 kts 96°
2026-04-22 23:21 10.57907 -85.48022 6953 ft 346 kts 96°
2026-04-22 23:21 10.57626 -85.45637 8049 ft 335 kts 95°
2026-04-22 23:21 10.57350 -85.43320 9142 ft 325 kts 95°
2026-04-22 23:22 10.57081 -85.41072 10191 ft 316 kts 95°
2026-04-22 23:22 10.56817 -85.38891 11154 ft 307 kts 95°
2026-04-22 23:22 10.56559 -85.36767 12117 ft 299 kts 95°
2026-04-22 23:22 10.56353 -85.34684 12897 ft 299 kts 88°
2026-04-22 23:23 10.56816 -85.32538 12478 ft 334 kts 63°
2026-04-22 23:23 10.58356 -85.30606 11567 ft 372 kts 38°
2026-04-22 23:23 10.60775 -85.29424 10601 ft 405 kts 14°
2026-04-22 23:23 10.63621 -85.29221 10210 ft 406 kts
2026-04-22 23:24 10.66486 -85.29227 10544 ft 411 kts
2026-04-22 23:24 10.69270 -85.29275 11470 ft 399 kts 357°
2026-04-22 23:24 10.72035 -85.29967 11225 ft 429 kts 337°
2026-04-22 23:24 10.74639 -85.31471 11997 ft 423 kts 331°
2026-04-22 23:25 10.77119 -85.32980 13224 ft 408 kts 331°
2026-04-22 23:25 10.79482 -85.34540 13996 ft 410 kts 323°
2026-04-22 23:25 10.81448 -85.36762 13442 ft 439 kts 304°
2026-04-22 23:25 10.82585 -85.39637 12389 ft 435 kts 282°
2026-04-22 23:26 10.82621 -85.42619 11289 ft 425 kts 259°
2026-04-22 23:26 10.81546 -85.45395 10223 ft 413 kts 236°
2026-04-22 23:26 10.79672 -85.47513 9562 ft 391 kts 220°
2026-04-22 23:26 10.77656 -85.49237 9147 ft 379 kts 220°
2026-04-22 23:27 10.75700 -85.50932 8659 ft 359 kts 220°
2026-04-22 23:27 10.73849 -85.52542 8190 ft 342 kts 220°
2026-04-22 23:27 10.72079 -85.54076 7750 ft 328 kts 219°
2026-04-22 23:27 10.70373 -85.55546 7322 ft 315 kts 219°
2026-04-22 23:28 10.68846 -85.57083 6898 ft 305 kts 236°
2026-04-22 23:28 10.67921 -85.58982 6483 ft 296 kts 248°
2026-04-22 23:28 10.67198 -85.60909 6053 ft 288 kts 250°
2026-04-22 23:28 10.66732 -85.62190 5755 ft 284 kts 250°
2026-04-22 23:29 10.66062 -85.64053 5405 ft 275 kts 250°
2026-04-22 23:29 10.65423 -85.65863 4972 ft 270 kts 250°
2026-04-22 23:29 10.64794 -85.67626 4535 ft 257 kts 250°
2026-04-22 23:29 10.64215 -85.69264 4104 ft 242 kts 250°
2026-04-22 23:30 10.63654 -85.70833 3668 ft 230 kts 245°
2026-04-22 23:30 10.62768 -85.72114 3243 ft 220 kts 218°
2026-04-22 23:30 10.61420 -85.72865 2995 ft 210 kts 190°
2026-04-22 23:30 10.60097 -85.72967 2977 ft 180 kts 166°
2026-04-22 23:31 10.58876 -85.72587 3068 ft 190 kts 153°
2026-04-22 23:31 10.57583 -85.72032 3023 ft 214 kts 153°
2026-04-22 23:31 10.56239 -85.71252 2931 ft 227 kts 136°
2026-04-22 23:31 10.55296 -85.70110 2839 ft 197 kts 116°
2026-04-22 23:32 10.54835 -85.68904 2705 ft 171 kts 100°
2026-04-22 23:32 10.54745 -85.67787 2549 ft 149 kts 85°
2026-04-22 23:32 10.54950 -85.66695 2408 ft 163 kts 71°
2026-04-22 23:32 10.55327 -85.65648 2200 ft 154 kts 71°
2026-04-22 23:33 10.55683 -85.64656 2010 ft 145 kts 71°
2026-04-22 23:33 10.56015 -85.63728 1856 ft 141 kts 70°
2026-04-22 23:33 10.56349 -85.62796 1669 ft 139 kts 72°
2026-04-22 23:33 10.56676 -85.61884 1485 ft 137 kts 71°
2026-04-22 23:34 10.56999 -85.60984 1308 ft 134 kts 72°
2026-04-22 23:34 10.57113 -85.60666 1252 ft 133 kts 72°
2026-04-22 23:36 10.57308 -85.60110 1173 ft 138 kts 71°
2026-04-22 23:36 10.57634 -85.59205 1001 ft 135 kts 71°
2026-04-22 23:36 10.57959 -85.58301 825 ft 138 kts 68°
2026-04-22 23:37 10.58291 -85.57375 658 ft 140 kts 70°
2026-04-22 23:37 10.58624 -85.56449 467 ft 140 kts 71°
2026-04-22 23:37 10.58960 -85.55517 269 ft 137 kts 70°
2026-04-22 23:37 10.59211 -85.54798 260 ft 73 kts 71°
2026-04-22 23:38 10.59360 -85.54353 264 ft 63 kts 71°
2026-04-22 23:38 10.59502 -85.53959 269 ft 56 kts 68°
2026-04-22 23:38 10.59599 -85.53803 271 ft 3 kts 336°
2026-04-22 23:38 10.59638 -85.53833 270 ft 9 kts 333°
2026-04-22 23:39 10.59709 -85.53865 270 ft 12 kts 339°
2026-04-22 23:39 10.59797 -85.53899 270 ft 14 kts 339°
2026-04-22 23:39 10.59868 -85.53865 271 ft 13 kts 89°
2026-04-22 23:39 10.59881 -85.53790 271 ft 0 kts 71°